Time,TemperatureF,DewpointF,PressureIn,WindDirection,WindDirectionDegrees,WindSpeedMPH,WindSpeedGustMPH,Humidity,HourlyPrecipIn,Conditions,Clouds,dailyrainin,SoftwareType,DateUTC
2015-08-03 00:03:00,74.1,51.4,29.92,South,176,0.0,0.0,45,0.00,,,0.00,VWS V13.01,2015-08-03 07:03:00,
2015-08-03 00:08:00,73.9,51.3,29.92,South,176,0.0,0.0,45,0.00,,,0.00,VWS V13.01,2015-08-03 07:08:00,
2015-08-03 00:13:00,73.9,51.3,29.92,South,176,0.0,0.0,45,0.00,,,0.00,VWS V13.01,2015-08-03 07:13:00,
2015-08-03 00:18:00,73.8,51.1,29.92,South,176,0.0,0.0,45,0.00,,,0.00,VWS V13.01,2015-08-03 07:18:00,
2015-08-03 00:23:00,73.8,50.5,29.92,South,176,0.0,0.0,44,0.00,,,0.00,VWS V13.01,2015-08-03 07:23:00,
2015-08-03 00:28:00,73.8,49.9,29.92,South,176,0.0,0.0,43,0.00,,,0.00,VWS V13.01,2015-08-03 07:28:00,
2015-08-03 00:33:00,73.8,49.3,29.92,South,176,0.0,0.0,42,0.00,,,0.00,VWS V13.01,2015-08-03 07:33:00,
2015-08-03 00:38:00,73.9,49.4,29.92,South,176,0.0,0.0,42,0.00,,,0.00,VWS V13.01,2015-08-03 07:38:00,
2015-08-03 00:43:00,73.9,49.4,29.92,South,176,0.0,0.0,42,0.00,,,0.00,VWS V13.01,2015-08-03 07:43:00,
2015-08-03 00:48:00,73.8,49.3,29.92,South,176,0.0,0.0,42,0.00,,,0.00,VWS V13.01,2015-08-03 07:48:00,
2015-08-03 00:53:00,73.8,49.3,29.92,South,176,0.0,0.0,42,0.00,,,0.00,VWS V13.01,2015-08-03 07:53:00,
2015-08-03 00:58:00,73.8,48.6,29.92,South,176,0.0,0.0,41,0.00,,,0.00,VWS V13.01,2015-08-03 07:58:00,
2015-08-03 01:03:00,73.9,48.8,29.92,South,176,0.0,0.0,41,0.00,,,0.00,VWS V13.01,2015-08-03 08:03:00,
2015-08-03 01:08:00,73.8,48.6,29.92,South,176,0.0,0.0,41,0.00,,,0.00,VWS V13.01,2015-08-03 08:08:00,
2015-08-03 01:13:00,73.9,48.8,29.92,South,176,0.0,0.0,41,0.00,,,0.00,VWS V13.01,2015-08-03 08:13:00,
2015-08-03 01:18:00,73.8,48.6,29.92,South,176,0.0,0.0,41,0.00,,,0.00,VWS V13.01,2015-08-03 08:18:00,
2015-08-03 01:23:00,73.6,48.5,29.92,South,176,0.0,0.0,41,0.00,,,0.00,VWS V13.01,2015-08-03 08:23:00,
2015-08-03 01:28:00,73.6,48.5,29.92,South,176,0.0,0.0,41,0.00,,,0.00,VWS V13.01,2015-08-03 08:28:00,
2015-08-03 01:33:00,73.6,48.5,29.92,South,176,0.0,0.0,41,0.00,,,0.00,VWS V13.01,2015-08-03 08:33:00,
2015-08-03 01:38:00,73.6,48.5,29.92,South,176,0.0,0.0,41,0.00,,,0.00,VWS V13.01,2015-08-03 08:38:00,
2015-08-03 01:43:00,73.6,48.5,29.92,South,176,0.0,0.0,41,0.00,,,0.00,VWS V13.01,2015-08-03 08:43:00,
2015-08-03 01:48:00,73.4,48.3,29.92,South,176,0.0,0.0,41,0.00,,,0.00,VWS V13.01,2015-08-03 08:48:00,
2015-08-03 01:53:00,73.4,48.3,29.92,South,176,0.0,0.0,41,0.00,,,0.00,VWS V13.01,2015-08-03 08:53:00,
2015-08-03 01:58:00,73.4,48.3,29.92,South,176,0.0,0.0,41,0.00,,,0.00,VWS V13.01,2015-08-03 08:58:00,
2015-08-03 02:03:00,73.2,48.8,29.92,South,176,0.0,0.0,42,0.00,,,0.00,VWS V13.01,2015-08-03 09:03:00,
2015-08-03 02:08:00,73.0,48.6,29.92,South,176,0.0,0.0,42,0.00,,,0.00,VWS V13.01,2015-08-03 09:08:00,
2015-08-03 02:13:00,72.9,48.5,29.92,South,176,0.0,0.0,42,0.00,,,0.00,VWS V13.01,2015-08-03 09:13:00,
2015-08-03 02:18:00,72.9,48.5,29.92,South,176,0.0,0.0,42,0.00,,,0.00,VWS V13.01,2015-08-03 09:18:00,
2015-08-03 02:23:00,72.7,48.3,29.92,South,176,0.0,0.0,42,0.00,,,0.00,VWS V13.01,2015-08-03 09:23:00,
2015-08-03 02:28:00,72.7,47.7,29.92,South,176,0.0,0.0,41,0.00,,,0.00,VWS V13.01,2015-08-03 09:28:00,
2015-08-03 02:33:00,72.9,47.8,29.92,South,176,0.0,0.0,41,0.00,,,0.00,VWS V13.01,2015-08-03 09:33:00,
2015-08-03 02:38:00,72.7,47.7,29.92,South,176,0.0,0.0,41,0.00,,,0.00,VWS V13.01,2015-08-03 09:38:00,
2015-08-03 02:43:00,72.7,47.7,29.92,South,176,0.0,0.0,41,0.00,,,0.00,VWS V13.01,2015-08-03 09:43:00,
2015-08-03 02:48:00,72.9,48.5,29.92,South,176,0.0,0.0,42,0.00,,,0.00,VWS V13.01,2015-08-03 09:48:00,
2015-08-03 02:53:00,72.9,48.5,29.92,South,176,0.0,0.0,42,0.00,,,0.00,VWS V13.01,2015-08-03 09:53:00,
2015-08-03 02:58:00,72.9,48.5,29.92,South,176,0.0,0.0,42,0.00,,,0.00,VWS V13.01,2015-08-03 09:58:00,
2015-08-03 03:03:00,72.7,48.3,29.92,South,176,0.0,0.0,42,0.00,,,0.00,VWS V13.01,2015-08-03 10:03:00,
2015-08-03 03:08:00,72.7,48.9,29.92,South,176,0.0,0.0,43,0.00,,,0.00,VWS V13.01,2015-08-03 10:08:00,
2015-08-03 03:13:00,72.5,48.8,29.92,South,176,0.0,0.0,43,0.00,,,0.00,VWS V13.01,2015-08-03 10:13:00,
2015-08-03 03:18:00,72.1,48.4,29.92,South,176,0.0,0.0,43,0.00,,,0.00,VWS V13.01,2015-08-03 10:18:00,
2015-08-03 03:23:00,71.6,47.9,29.92,South,176,0.0,0.0,43,0.00,,,0.00,VWS V13.01,2015-08-03 10:23:00,
2015-08-03 03:28:00,71.2,48.2,29.92,South,176,0.0,0.0,44,0.00,,,0.00,VWS V13.01,2015-08-03 10:28:00,
2015-08-03 03:33:00,71.2,48.8,29.92,South,176,0.0,0.0,45,0.00,,,0.00,VWS V13.01,2015-08-03 10:33:00,
2015-08-03 03:38:00,71.1,48.7,29.92,South,176,0.0,0.0,45,0.00,,,0.00,VWS V13.01,2015-08-03 10:38:00,
2015-08-03 03:43:00,70.9,49.1,29.92,South,176,0.0,0.0,46,0.00,,,0.00,VWS V13.01,2015-08-03 10:43:00,
2015-08-03 03:48:00,70.9,49.1,29.92,South,176,0.0,0.0,46,0.00,,,0.00,VWS V13.01,2015-08-03 10:48:00,
2015-08-03 03:53:00,70.9,49.1,29.92,South,176,0.0,0.0,46,0.00,,,0.00,VWS V13.01,2015-08-03 10:53:00,
2015-08-03 03:58:00,70.9,49.7,29.92,South,176,0.0,0.0,47,0.00,,,0.00,VWS V13.01,2015-08-03 10:58:00,
2015-08-03 04:03:00,70.9,49.7,29.92,South,176,0.0,0.0,47,0.00,,,0.00,VWS V13.01,2015-08-03 11:03:00,
2015-08-03 04:08:00,70.9,49.7,29.92,South,176,0.0,0.0,47,0.00,,,0.00,VWS V13.01,2015-08-03 11:08:00,
2015-08-03 04:13:00,70.9,49.7,29.92,South,176,0.0,0.0,47,0.00,,,0.00,VWS V13.01,2015-08-03 11:13:00,
2015-08-03 04:18:00,70.9,49.7,29.92,South,176,0.0,0.0,47,0.00,,,0.00,VWS V13.01,2015-08-03 11:18:00,
2015-08-03 04:23:00,70.7,49.5,29.92,South,176,0.0,0.0,47,0.00,,,0.00,VWS V13.01,2015-08-03 11:23:00,
2015-08-03 04:28:00,70.5,49.3,29.92,South,176,0.0,0.0,47,0.00,,,0.00,VWS V13.01,2015-08-03 11:28:00,
2015-08-03 04:32:00,70.5,49.9,29.92,South,176,0.0,0.0,48,0.00,,,0.00,VWS V13.01,2015-08-03 11:32:00,
2015-08-03 04:37:00,70.3,49.7,29.92,South,176,0.0,0.0,48,0.00,,,0.00,VWS V13.01,2015-08-03 11:37:00,
2015-08-03 04:42:00,70.2,50.1,29.92,South,176,0.0,0.0,49,0.00,,,0.00,VWS V13.01,2015-08-03 11:42:00,
2015-08-03 04:47:00,70.3,50.3,29.92,South,176,0.0,0.0,49,0.00,,,0.00,VWS V13.01,2015-08-03 11:47:00,
2015-08-03 04:52:00,70.5,50.5,29.92,South,176,0.0,0.0,49,0.00,,,0.00,VWS V13.01,2015-08-03 11:52:00,
2015-08-03 04:57:00,70.5,50.5,29.92,South,176,0.0,0.0,49,0.00,,,0.00,VWS V13.01,2015-08-03 11:57:00,
2015-08-03 05:02:00,70.7,50.6,29.92,South,176,0.0,0.0,49,0.00,,,0.00,VWS V13.01,2015-08-03 12:02:00,
2015-08-03 05:07:00,70.9,50.8,29.92,South,176,0.0,0.0,49,0.00,,,0.00,VWS V13.01,2015-08-03 12:07:00,
2015-08-03 05:12:00,70.9,50.8,29.92,South,176,0.0,0.0,49,0.00,,,0.00,VWS V13.01,2015-08-03 12:12:00,
2015-08-03 05:17:00,70.7,50.6,29.92,South,176,0.0,0.0,49,0.00,,,0.00,VWS V13.01,2015-08-03 12:17:00,
2015-08-03 05:22:00,70.9,50.8,29.92,South,176,0.0,0.0,49,0.00,,,0.00,VWS V13.01,2015-08-03 12:22:00,
2015-08-03 05:27:00,70.9,50.2,29.92,South,176,0.0,0.0,48,0.00,,,0.00,VWS V13.01,2015-08-03 12:27:00,
2015-08-03 05:32:00,70.9,50.2,29.92,South,176,0.0,0.0,48,0.00,,,0.00,VWS V13.01,2015-08-03 12:32:00,
2015-08-03 05:37:00,71.1,50.4,29.92,South,176,0.0,0.0,48,0.00,,,0.00,VWS V13.01,2015-08-03 12:37:00,
2015-08-03 05:42:00,71.1,50.4,29.92,South,176,0.0,0.0,48,0.00,,,0.00,VWS V13.01,2015-08-03 12:42:00,
2015-08-03 05:47:00,71.2,50.6,29.92,South,176,0.0,0.0,48,0.00,,,0.00,VWS V13.01,2015-08-03 12:47:00,
2015-08-03 05:52:00,71.1,50.4,29.92,South,176,0.0,0.0,48,0.00,,,0.00,VWS V13.01,2015-08-03 12:52:00,
2015-08-03 05:57:00,71.1,50.4,29.92,South,176,0.0,0.0,48,0.00,,,0.00,VWS V13.01,2015-08-03 12:57:00,
2015-08-03 06:02:00,71.1,50.4,29.92,South,176,0.0,0.0,48,0.00,,,0.00,VWS V13.01,2015-08-03 13:02:00,
2015-08-03 06:07:00,71.1,50.4,29.92,South,176,0.0,0.0,48,0.00,,,0.00,VWS V13.01,2015-08-03 13:07:00,
2015-08-03 06:12:00,71.1,51.0,29.92,South,176,0.0,0.0,49,0.00,,,0.00,VWS V13.01,2015-08-03 13:12:00,
2015-08-03 06:17:00,71.1,51.0,29.92,South,176,0.0,0.0,49,0.00,,,0.00,VWS V13.01,2015-08-03 13:17:00,
2015-08-03 06:22:00,71.1,51.0,29.92,South,176,0.0,0.0,49,0.00,,,0.00,VWS V13.01,2015-08-03 13:22:00,
2015-08-03 06:27:00,71.1,51.0,29.92,South,176,0.0,0.0,49,0.00,,,0.00,VWS V13.01,2015-08-03 13:27:00,
2015-08-03 06:32:00,71.1,51.0,29.92,South,176,0.0,0.0,49,0.00,,,0.00,VWS V13.01,2015-08-03 13:32:00,
2015-08-03 06:37:00,71.2,50.6,29.92,South,176,0.0,0.0,48,0.00,,,0.00,VWS V13.01,2015-08-03 13:37:00,
2015-08-03 06:42:00,71.4,50.7,29.92,South,176,0.0,0.0,48,0.00,,,0.00,VWS V13.01,2015-08-03 13:42:00,
2015-08-03 06:47:00,71.6,50.3,29.92,South,176,0.0,0.0,47,0.00,,,0.00,VWS V13.01,2015-08-03 13:47:00,
2015-08-03 06:52:00,71.8,50.5,29.92,South,176,0.0,0.0,47,0.00,,,0.00,VWS V13.01,2015-08-03 13:52:00,
2015-08-03 06:57:00,71.8,50.5,29.92,South,176,0.0,0.0,47,0.00,,,0.00,VWS V13.01,2015-08-03 13:57:00,
2015-08-03 07:02:00,72.0,50.7,29.92,South,176,0.0,0.0,47,0.00,,,0.00,VWS V13.01,2015-08-03 14:02:00,
2015-08-03 07:07:00,71.8,50.5,29.92,South,176,0.0,0.0,47,0.00,,,0.00,VWS V13.01,2015-08-03 14:07:00,
2015-08-03 07:12:00,71.8,50.5,29.92,South,176,0.0,0.0,47,0.00,,,0.00,VWS V13.01,2015-08-03 14:12:00,
2015-08-03 07:17:00,71.6,50.3,29.92,South,176,0.0,0.0,47,0.00,,,0.00,VWS V13.01,2015-08-03 14:17:00,
2015-08-03 07:22:00,71.6,50.3,29.92,South,176,0.0,0.0,47,0.00,,,0.00,VWS V13.01,2015-08-03 14:22:00,
2015-08-03 07:27:00,71.6,50.3,29.92,South,176,0.0,0.0,47,0.00,,,0.00,VWS V13.01,2015-08-03 14:27:00,
2015-08-03 07:32:00,71.6,50.3,29.92,South,176,0.0,0.0,47,0.00,,,0.00,VWS V13.01,2015-08-03 14:32:00,
2015-08-03 07:37:00,71.8,51.1,29.92,South,176,0.0,0.0,48,0.00,,,0.00,VWS V13.01,2015-08-03 14:37:00,
2015-08-03 07:42:00,72.0,50.7,29.92,South,176,0.0,0.0,47,0.00,,,0.00,VWS V13.01,2015-08-03 14:42:00,
2015-08-03 07:47:00,72.1,51.4,29.92,South,176,0.0,0.0,48,0.00,,,0.00,VWS V13.01,2015-08-03 14:47:00,
2015-08-03 07:52:00,72.3,51.5,29.92,South,176,0.0,0.0,48,0.00,,,0.00,VWS V13.01,2015-08-03 14:52:00,
2015-08-03 07:57:00,72.3,51.0,29.92,South,176,0.0,0.0,47,0.00,,,0.00,VWS V13.01,2015-08-03 14:57:00,
2015-08-03 08:02:00,72.5,51.2,29.92,South,176,0.0,0.0,47,0.00,,,0.00,VWS V13.01,2015-08-03 15:02:00,
2015-08-03 08:07:00,72.5,50.6,29.92,South,176,0.0,0.0,46,0.00,,,0.00,VWS V13.01,2015-08-03 15:07:00,
2015-08-03 08:12:00,72.7,50.1,29.95,South,176,0.0,0.0,45,0.00,,,0.00,VWS V13.01,2015-08-03 15:12:00,
2015-08-03 08:17:00,72.9,50.3,29.95,South,176,0.0,0.0,45,0.00,,,0.00,VWS V13.01,2015-08-03 15:17:00,
2015-08-03 08:22:00,73.0,49.9,29.95,South,176,0.0,0.0,44,0.00,,,0.00,VWS V13.01,2015-08-03 15:22:00,
2015-08-03 08:27:00,73.2,50.0,29.95,South,176,0.0,0.0,44,0.00,,,0.00,VWS V13.01,2015-08-03 15:27:00,
2015-08-03 08:32:00,73.2,50.6,29.95,South,176,0.0,0.0,45,0.00,,,0.00,VWS V13.01,2015-08-03 15:32:00,
2015-08-03 08:37:00,73.0,51.6,29.95,South,176,0.0,0.0,47,0.00,,,0.00,VWS V13.01,2015-08-03 15:37:00,
2015-08-03 08:42:00,73.0,51.6,29.95,South,176,0.0,0.0,47,0.00,,,0.00,VWS V13.01,2015-08-03 15:42:00,
2015-08-03 08:47:00,73.2,51.8,29.95,South,176,0.0,0.0,47,0.00,,,0.00,VWS V13.01,2015-08-03 15:47:00,
2015-08-03 08:52:00,73.4,51.4,29.95,South,176,0.0,0.0,46,0.00,,,0.00,VWS V13.01,2015-08-03 15:52:00,
2015-08-03 08:57:00,73.8,51.7,29.95,South,176,0.0,0.0,46,0.00,,,0.00,VWS V13.01,2015-08-03 15:57:00,
2015-08-03 09:02:00,73.9,51.9,29.95,South,177,0.0,0.0,46,0.00,,,0.00,VWS V13.01,2015-08-03 16:02:00,
2015-08-03 09:07:00,73.9,51.9,29.95,South,177,0.0,0.0,46,0.00,,,0.00,VWS V13.01,2015-08-03 16:07:00,
2015-08-03 09:12:00,74.1,50.8,29.95,South,180,0.0,0.0,44,0.00,,,0.00,VWS V13.01,2015-08-03 16:12:00,
2015-08-03 09:17:00,74.3,50.4,29.95,South,180,0.0,0.0,43,0.00,,,0.00,VWS V13.01,2015-08-03 16:17:00,
2015-08-03 09:22:00,74.5,51.2,29.95,SSW,210,0.0,0.0,44,0.00,,,0.00,VWS V13.01,2015-08-03 16:22:00,
2015-08-03 09:27:00,74.7,51.3,29.95,SSW,210,0.0,0.0,44,0.00,,,0.00,VWS V13.01,2015-08-03 16:27:00,
2015-08-03 09:32:00,74.8,51.5,29.95,WNW,298,0.0,0.0,44,0.00,,,0.00,VWS V13.01,2015-08-03 16:32:00,
2015-08-03 09:37:00,75.2,51.8,29.95,WNW,298,0.0,0.0,44,0.00,,,0.00,VWS V13.01,2015-08-03 16:37:00,
2015-08-03 09:42:00,75.6,51.5,29.95,WNW,298,3.6,3.6,43,0.00,,,0.00,VWS V13.01,2015-08-03 16:42:00,
2015-08-03 09:47:00,75.9,51.8,29.95,NW,305,0.0,0.0,43,0.00,,,0.00,VWS V13.01,2015-08-03 16:47:00,
2015-08-03 09:52:00,76.1,52.0,29.95,NW,306,0.0,0.0,43,0.00,,,0.00,VWS V13.01,2015-08-03 16:52:00,
2015-08-03 09:57:00,76.5,52.3,29.95,NW,307,0.0,0.0,43,0.00,,,0.00,VWS V13.01,2015-08-03 16:57:00,
2015-08-03 10:02:00,76.8,52.7,29.95,WNW,303,2.7,2.7,43,0.00,,,0.00,VWS V13.01,2015-08-03 17:02:00,
2015-08-03 10:07:00,77.2,52.3,29.95,WNW,303,0.0,4.0,42,0.00,,,0.00,VWS V13.01,2015-08-03 17:07:00,
2015-08-03 10:12:00,77.2,52.3,29.95,NNW,331,0.0,0.0,42,0.00,,,0.00,VWS V13.01,2015-08-03 17:12:00,
2015-08-03 10:17:00,77.4,52.5,29.95,NW,314,0.0,0.0,42,0.00,,,0.00,VWS V13.01,2015-08-03 17:17:00,
2015-08-03 10:22:00,77.4,52.5,29.95,WNW,295,3.1,3.1,42,0.00,,,0.00,VWS V13.01,2015-08-03 17:22:00,
2015-08-03 10:27:00,77.5,52.7,29.95,WNW,301,2.7,2.7,42,0.00,,,0.00,VWS V13.01,2015-08-03 17:27:00,
2015-08-03 10:32:00,77.9,52.3,29.95,NW,308,0.0,2.2,41,0.00,,,0.00,VWS V13.01,2015-08-03 17:32:00,
2015-08-03 10:37:00,78.3,52.7,29.95,WNW,288,3.6,3.6,41,0.00,,,0.00,VWS V13.01,2015-08-03 17:37:00,
2015-08-03 10:42:00,79.0,53.3,29.95,WNW,292,4.0,4.0,41,0.00,,,0.00,VWS V13.01,2015-08-03 17:42:00,
2015-08-03 10:47:00,79.7,53.3,29.95,NW,316,2.7,3.1,40,0.00,,,0.00,VWS V13.01,2015-08-03 17:47:00,
2015-08-03 10:52:00,80.2,53.1,29.95,NNW,340,3.1,3.1,39,0.00,,,0.00,VWS V13.01,2015-08-03 17:52:00,
2015-08-03 10:57:00,80.8,52.8,29.95,NW,320,2.7,2.7,38,0.00,,,0.00,VWS V13.01,2015-08-03 17:57:00,
2015-08-03 11:02:00,81.1,52.4,29.95,NW,316,0.0,0.0,37,0.00,,,0.00,VWS V13.01,2015-08-03 18:02:00,
2015-08-03 11:07:00,81.5,52.0,29.95,WNW,283,2.7,4.0,36,0.00,,,0.00,VWS V13.01,2015-08-03 18:07:00,
2015-08-03 11:12:00,81.5,52.0,29.95,West,279,3.1,3.1,36,0.00,,,0.00,VWS V13.01,2015-08-03 18:12:00,
2015-08-03 11:17:00,81.7,51.4,29.95,West,268,2.7,3.1,35,0.00,,,0.00,VWS V13.01,2015-08-03 18:17:00,
2015-08-03 11:22:00,81.7,51.4,29.95,WSW,239,4.0,4.0,35,0.00,,,0.00,VWS V13.01,2015-08-03 18:22:00,
2015-08-03 11:27:00,81.9,51.5,29.95,SSW,197,3.6,4.0,35,0.00,,,0.00,VWS V13.01,2015-08-03 18:27:00,
2015-08-03 11:32:00,81.5,50.5,29.95,West,264,0.0,3.1,34,0.00,,,0.00,VWS V13.01,2015-08-03 18:32:00,
2015-08-03 11:37:00,81.3,51.1,29.95,West,259,3.6,3.6,35,0.00,,,0.00,VWS V13.01,2015-08-03 18:37:00,
2015-08-03 11:42:00,81.7,51.4,29.95,WNW,296,3.6,4.9,35,0.00,,,0.00,VWS V13.01,2015-08-03 18:42:00,
2015-08-03 11:47:00,81.5,51.2,29.95,WSW,246,2.7,5.4,35,0.00,,,0.00,VWS V13.01,2015-08-03 18:47:00,
2015-08-03 11:52:00,81.3,51.1,29.95,WSW,251,3.6,4.0,35,0.00,,,0.00,VWS V13.01,2015-08-03 18:52:00,
2015-08-03 11:57:00,81.3,50.3,29.95,WNW,283,3.1,3.1,34,0.00,,,0.00,VWS V13.01,2015-08-03 18:57:00,
2015-08-03 12:02:00,81.3,50.3,29.95,SSE,157,0.0,4.9,34,0.00,,,0.00,VWS V13.01,2015-08-03 19:02:00,
2015-08-03 12:07:00,81.3,51.1,29.95,WSW,242,2.7,3.6,35,0.00,,,0.00,VWS V13.01,2015-08-03 19:07:00,
2015-08-03 12:12:00,81.9,50.8,29.95,WNW,303,5.4,5.4,34,0.00,,,0.00,VWS V13.01,2015-08-03 19:12:00,
2015-08-03 12:17:00,82.0,50.9,29.95,SW,214,2.2,4.0,34,0.00,,,0.00,VWS V13.01,2015-08-03 19:17:00,
2015-08-03 12:22:00,82.2,50.3,29.95,SSW,204,0.0,4.0,33,0.00,,,0.00,VWS V13.01,2015-08-03 19:22:00,
2015-08-03 12:27:00,82.2,50.3,29.95,WSW,242,0.0,0.0,33,0.00,,,0.00,VWS V13.01,2015-08-03 19:27:00,
2015-08-03 12:32:00,82.4,50.4,29.95,West,276,2.7,3.1,33,0.00,,,0.00,VWS V13.01,2015-08-03 19:32:00,
2015-08-03 12:37:00,82.6,50.6,29.95,WNW,282,5.8,6.3,33,0.00,,,0.00,VWS V13.01,2015-08-03 19:37:00,
2015-08-03 12:42:00,82.8,50.8,29.95,WSW,240,3.6,3.6,33,0.00,,,0.00,VWS V13.01,2015-08-03 19:42:00,
2015-08-03 12:47:00,83.3,50.4,29.95,West,263,4.0,4.0,32,0.00,,,0.00,VWS V13.01,2015-08-03 19:47:00,
2015-08-03 12:52:00,83.3,50.4,29.95,SSW,195,5.4,5.4,32,0.00,,,0.00,VWS V13.01,2015-08-03 19:52:00,
2015-08-03 12:57:00,83.3,50.4,29.95,WNW,288,5.8,8.1,32,0.00,,,0.00,VWS V13.01,2015-08-03 19:57:00,
2015-08-03 13:02:00,83.3,50.4,29.95,WSW,253,4.0,4.9,32,0.00,,,0.00,VWS V13.01,2015-08-03 20:02:00,
2015-08-03 13:07:00,83.1,50.2,29.95,West,268,5.4,7.6,32,0.00,,,0.00,VWS V13.01,2015-08-03 20:07:00,
2015-08-03 13:12:00,82.9,50.1,29.95,SSW,198,2.7,3.1,32,0.00,,,0.00,VWS V13.01,2015-08-03 20:12:00,
2015-08-03 13:17:00,82.8,50.8,29.95,West,277,4.0,4.9,33,0.00,,,0.00,VWS V13.01,2015-08-03 20:17:00,
2015-08-03 13:22:00,82.9,50.9,29.95,WNW,297,4.0,5.8,33,0.00,,,0.00,VWS V13.01,2015-08-03 20:22:00,
2015-08-03 13:27:00,82.8,49.9,29.95,West,275,5.8,5.8,32,0.00,,,0.00,VWS V13.01,2015-08-03 20:27:00,
2015-08-03 13:32:00,82.6,50.6,29.95,WSW,258,2.7,4.0,33,0.00,,,0.00,VWS V13.01,2015-08-03 20:32:00,
2015-08-03 13:37:00,82.9,50.1,29.95,West,278,5.4,5.8,32,0.00,,,0.00,VWS V13.01,2015-08-03 20:37:00,
2015-08-03 13:42:00,82.8,49.9,29.95,WSW,249,3.6,5.4,32,0.00,,,0.00,VWS V13.01,2015-08-03 20:42:00,
2015-08-03 13:47:00,82.9,50.1,29.95,NW,307,3.1,6.7,32,0.00,,,0.00,VWS V13.01,2015-08-03 20:47:00,
2015-08-03 13:52:00,82.9,49.2,29.95,NW,320,7.6,7.6,31,0.00,,,0.00,VWS V13.01,2015-08-03 20:52:00,
2015-08-03 13:57:00,82.4,48.8,29.95,SW,223,4.9,5.4,31,0.00,,,0.00,VWS V13.01,2015-08-03 20:57:00,
2015-08-03 14:02:00,82.4,49.6,29.95,NW,307,2.7,3.1,32,0.00,,,0.00,VWS V13.01,2015-08-03 21:02:00,
2015-08-03 14:07:00,82.9,49.2,29.95,WSW,249,3.1,5.4,31,0.00,,,0.00,VWS V13.01,2015-08-03 21:07:00,
2015-08-03 14:12:00,83.3,49.5,29.95,South,172,0.0,4.0,31,0.00,,,0.00,VWS V13.01,2015-08-03 21:12:00,
2015-08-03 14:16:00,84.0,50.2,29.95,SSW,205,0.0,5.4,31,0.00,,,0.00,VWS V13.01,2015-08-03 21:16:00,
2015-08-03 14:21:00,84.4,49.6,29.95,West,269,0.0,0.0,30,0.00,,,0.00,VWS V13.01,2015-08-03 21:21:00,
2015-08-03 14:26:00,84.2,49.4,29.95,SW,229,0.0,4.0,30,0.00,,,0.00,VWS V13.01,2015-08-03 21:26:00,
2015-08-03 14:31:00,84.7,49.9,29.95,WSW,249,2.7,2.7,30,0.00,,,0.00,VWS V13.01,2015-08-03 21:31:00,
2015-08-03 14:36:00,85.5,49.6,29.95,WNW,302,4.0,5.8,29,0.00,,,0.00,VWS V13.01,2015-08-03 21:36:00,
2015-08-03 14:41:00,85.8,49.9,29.95,WSW,239,2.7,3.6,29,0.00,,,0.00,VWS V13.01,2015-08-03 21:41:00,
2015-08-03 14:46:00,85.3,49.5,29.95,WSW,240,2.7,3.1,29,0.00,,,0.00,VWS V13.01,2015-08-03 21:46:00,
2015-08-03 14:51:00,85.3,49.5,29.95,SW,227,2.7,5.4,29,0.00,,,0.00,VWS V13.01,2015-08-03 21:51:00,
2015-08-03 14:56:00,85.6,49.8,29.95,WNW,297,0.0,0.0,29,0.00,,,0.00,VWS V13.01,2015-08-03 21:56:00,
2015-08-03 15:01:00,86.2,50.2,29.95,WSW,246,2.2,5.4,29,0.00,,,0.00,VWS V13.01,2015-08-03 22:01:00,
2015-08-03 15:06:00,86.2,50.2,29.95,NW,307,3.1,3.6,29,0.00,,,0.00,VWS V13.01,2015-08-03 22:06:00,
2015-08-03 15:11:00,86.2,50.2,29.95,West,261,4.9,4.9,29,0.00,,,0.00,VWS V13.01,2015-08-03 22:11:00,
2015-08-03 15:16:00,86.9,50.8,29.95,WSW,248,0.0,2.7,29,0.00,,,0.00,VWS V13.01,2015-08-03 22:16:00,
2015-08-03 15:21:00,87.1,51.0,29.95,WSW,238,0.0,0.0,29,0.00,,,0.00,VWS V13.01,2015-08-03 22:21:00,
2015-08-03 15:26:00,87.4,50.4,29.95,SSW,203,0.0,0.0,28,0.00,,,0.00,VWS V13.01,2015-08-03 22:26:00,
2015-08-03 15:31:00,87.4,50.4,29.95,West,265,4.0,5.4,28,0.00,,,0.00,VWS V13.01,2015-08-03 22:31:00,